This is the latest recevied weather packets stored in our database for station/object K6CQU-13. If no packets are shown the sender has not sent any weather packets the latest 10 day(s).
| Time | Temp. | Humidity | Pressure | Rain* | Wind** | Luminosity | Snow |
|---|---|---|---|---|---|---|---|
| 1787955618 | 26.11° C | 51% | 1014.1 hPa | 0 mm | - | 314 W/m² | - |
| 1787955318 | 26.67° C | 51% | 1014.2 hPa | 0 mm | - | 331 W/m² | - |
| 1787955017 | 27.22° C | 48% | 1014.3 hPa | 0 mm | - | 344 W/m² | - |
| 1787954717 | 27.78° C | 45% | 1014.3 hPa | 0 mm | - | 305 W/m² | - |
| 1787954418 | 28.33° C | 47% | 1014.3 hPa | 0 mm | - | 308 W/m² | - |
| 1787954117 | 27.78° C | 48% | 1014.4 hPa | 0 mm | - | 931 W/m² | - |
| 1787953817 | 27.78° C | 45% | 1014.5 hPa | 0 mm | - | 850 W/m² | - |
| 1787953517 | 27.78° C | 48% | 1014.6 hPa | 0 mm | - | 648 W/m² | - |
| 1787953217 | 27.78° C | 45% | 1014.7 hPa | 0 mm | - | 494 W/m² | - |
| 1787952917 | 27.78° C | 43% | 1014.6 hPa | 0 mm | - | 573 W/m² | - |
| 1787952617 | 27.78° C | 41% | 1014.7 hPa | 0 mm | - | 635 W/m² | - |
| 1787952318 | 27.78° C | 43% | 1014.7 hPa | 0 mm | - | 580 W/m² | - |
| 1787952017 | 27.78° C | 47% | 1014.7 hPa | 0 mm | - | 966 W/m² | - |
| 1787951717 | 27.78° C | 46% | 1014.8 hPa | 0 mm | - | 661 W/m² | - |
| 1787951417 | 27.78° C | 46% | 1014.7 hPa | 0 mm | - | 769 W/m² | - |
| 1787951117 | 27.78° C | 43% | 1014.7 hPa | 0 mm | - | 1056 W/m² | - |
| 1787950817 | 27.22° C | 46% | 1014.8 hPa | 0 mm | - | 1045 W/m² | - |
| 1787950517 | 26.67° C | 50% | 1014.9 hPa | 0 mm | - | 1036 W/m² | - |
| 1787950217 | 26.11° C | 50% | 1015 hPa | 0 mm | - | 1045 W/m² | - |
| 1787949918 | 25.56° C | 53% | 1015.1 hPa | 0 mm | - | 1105 W/m² | - |
| 1787949617 | 25.56° C | 53% | 1015.2 hPa | 0 mm | - | 530 W/m² | - |
| 1787949318 | 25° C | 53% | 1015.2 hPa | 0 mm | - | 487 W/m² | - |
| 1787949018 | 25° C | 51% | 1015.3 hPa | 0 mm | - | 478 W/m² | - |
| 1787948717 | 24.44° C | 55% | 1015.3 hPa | 0 mm | - | 459 W/m² | - |
| 1787948417 | 24.44° C | 57% | 1015.3 hPa | 0 mm | - | 420 W/m² | - |
* Rain latest hour (hover to see other rain measurements)
** Current wind speed in m/s (hover to see current wind gust speed)